Weather History for Fountain Dale, PA

Change the Weather History Date:

Wednesday, November 21, 2012

  Actual Average (KHGR) Record (KHGR)
Temperature  
Mean Temperature 47 °F -  
Max Temperature 59 °F 49 °F 71 °F (2007)
Min Temperature 35 °F 34 °F 25 °F (2000)
Degree Days  
Heating Degree Days 18    
Moisture  
Dew Point 31 °F    
Average Humidity 65    
Maximum Humidity 77    
Minimum Humidity 33    
Precipitation  
Precipitation 0.00 in - - ()
Sea Level Pressure  
Sea Level Pressure 30.18 in    
Wind  
Wind Speed 1 mph (SW)    
Max Wind Speed 5 mph    
Max Gust Speed -    
Visibility 6 miles    
Events      
Averages and records for this station are not official NWS values.
T = Trace of Precipitation, MM = Missing Value Source: NWS Daily Summary

Daily Weather History Graph

Daily Weather History Graph

Search for Another Location

Airport:

Trip Planner

Search our weather history database for the weather conditions in past years. The results will help you decide how hot, cold, wet, or windy it might be!

Date:

Astronomy

Nov. 21, 2012 Rise Set
Actual Time 7:01 AM EST 4:49 PM EST
Civil Twilight 6:32 AM EST 5:18 PM EST
Nautical Twilight 5:59 AM EST 5:51 PM EST
Astronomical Twilight 5:27 AM EST 6:24 PM EST
Moon 1:04 PM EST (11/21) 12:19 AM EST (11/21)
Length of Visible Light 10h 46m
Length of Day
9h 48m
First Quarter, 61% of the Moon is Illuminated
Nov 21
First Quarter
Nov 28
Full
Dec 6
Last Quarter
Dec 13
New
Dec 20
First Quarter

Hourly Weather History & Observations

Time (EST) Temp. Windchill Dew Point Humidity Pressure Visibility Wind Dir Wind Speed Gust Speed Precip Events Conditions
12:53 AM 41.0 °F - 33.1 °F 73% 30.13 in 3.0 mi Calm Calm - N/A   Haze
1:53 AM 39.9 °F - 33.1 °F 77% 30.13 in 3.0 mi Calm Calm - N/A   Haze
2:01 AM 39.2 °F - 30.2 °F 70% 30.12 in 2.5 mi Calm Calm - N/A   Haze
2:53 AM 39.9 °F - 32.0 °F 73% 30.15 in 3.0 mi Calm Calm - N/A   Haze
3:53 AM 39.0 °F - 32.0 °F 76% 30.15 in 3.0 mi Calm Calm - N/A   Haze
4:04 AM 37.4 °F 34.9 °F 30.2 °F 75% 30.13 in 2.5 mi SW 3.5 mph - N/A   Haze
4:25 AM 37.4 °F - 30.2 °F 75% 30.13 in 2.5 mi Calm Calm - N/A   Haze
4:53 AM 37.0 °F - 30.0 °F 76% 30.16 in 2.5 mi Calm Calm - N/A   Haze
6:02 AM 37.4 °F - 30.2 °F 75% 30.15 in 2.5 mi Calm Calm - N/A   Haze
6:23 AM 37.4 °F - 30.2 °F 75% 30.16 in 3.0 mi Calm Calm - N/A   Haze
6:32 AM 37.4 °F 34.9 °F 30.2 °F 75% 30.16 in 2.5 mi SW 3.5 mph - N/A   Haze
6:53 AM 37.0 °F - 30.0 °F 76% 30.19 in 3.0 mi Calm Calm - N/A   Haze
7:04 AM 37.4 °F - 30.2 °F 75% 30.17 in 2.5 mi Calm Calm - N/A   Haze
7:36 AM 35.6 °F 32.8 °F 28.4 °F 75% 30.17 in 1.5 mi SW 3.5 mph - N/A   Haze
7:53 AM 36.0 °F - 28.9 °F 76% 30.22 in 2.0 mi Calm Calm - N/A   Haze
8:14 AM 39.2 °F - 30.2 °F 70% 30.18 in 3.0 mi Calm Calm - N/A   Haze
8:53 AM 42.1 °F - 34.0 °F 73% 30.21 in 6.0 mi Calm Calm - N/A   Haze
9:53 AM 48.9 °F - 34.0 °F 56% 30.22 in 10.0 mi Variable 3.5 mph - N/A   Clear
10:53 AM 53.1 °F - 30.9 °F 43% 30.21 in 10.0 mi ENE 3.5 mph - N/A   Clear
12:53 PM 57.0 °F - 30.0 °F 36% 30.18 in 10.0 mi ENE 4.6 mph - N/A   Clear
1:53 PM 59.0 °F - 30.0 °F 33% 30.17 in 10.0 mi East 3.5 mph - N/A   Clear
2:53 PM 59.0 °F - 36.0 °F 42% 30.17 in 8.0 mi WSW 3.5 mph - N/A   Clear
4:53 PM 54.0 °F - 32.0 °F 43% 30.19 in 10.0 mi Calm Calm - N/A   Clear
6:53 PM 46.0 °F - 30.0 °F 54% 30.23 in 10.0 mi Calm Calm - N/A   Clear
7:53 PM 43.0 °F - 30.0 °F 60% 30.24 in 10.0 mi Calm Calm - N/A   Clear
8:53 PM 41.0 °F 39.0 °F 28.9 °F 62% 30.24 in 10.0 mi SW 3.5 mph - N/A   Clear
9:53 PM 39.0 °F 35.7 °F 28.0 °F 65% 30.23 in 10.0 mi SW 4.6 mph - N/A   Clear
10:53 PM 39.0 °F - 27.0 °F 62% 30.22 in 10.0 mi Calm Calm - N/A   Clear
11:53 PM 39.0 °F - 27.0 °F 62% 30.23 in 10.0 mi Calm Calm - N/A   Clear